Location: ????????
(60.4333°N, 46.4710°E)
Time: 19:26:23
(UTC+00:00)

COSMO-SKYMED 1 - Pass Details

Date: 25 November 2020
Orbit: 621 x 623 km, 97.9° (Epoch: 17 January)

Event Time Altitude Azimuth Distance (km) Brightness Sun altitude
Exits shadow 15:32:21 69° 182° (S) 676 2.6 -24.4°
Drops below altitude 10° 15:36:11 10° 196° (SSW) 1,997 5.3 -24.8°
Sets 15:38:22 0° 197° (SSW) 2,899 6.2 -25.1°
